www.pogodaiklimat.ru

Архив погоды в Кордове (Аргентина)

Время
(UTC), дата
10 6.04
11 6.04
12 6.04
13 6.04
14 6.04
15 6.04
16 6.04
17 6.04
18 6.04
19 6.04
20 6.04
21 6.04
22 6.04
23 6.04
00 7.04
01 7.04
02 7.04
03 7.04
04 7.04
05 7.04
06 7.04
07 7.04
08 7.04
09 7.04
10 7.04
11 7.04
12 7.04
13 7.04
14 7.04
15 7.04
16 7.04
17 7.04
18 7.04
19 7.04
20 7.04
21 7.04
22 7.04
23 7.04
00 8.04
01 8.04
02 8.04
03 8.04
04 8.04
05 8.04
06 8.04
07 8.04
08 8.04
09 8.04
10 8.04
11 8.04
12 8.04
13 8.04
14 8.04
15 8.04
16 8.04
17 8.04
18 8.04
19 8.04
20 8.04
21 8.04
22 8.04
23 8.04
00 9.04
01 9.04
02 9.04
03 9.04
04 9.04
05 9.04
06 9.04
07 9.04
08 9.04
09 9.04
10 9.04
11 9.04
12 9.04
13 9.04
14 9.04
15 9.04
16 9.04
17 9.04
18 9.04
19 9.04
20 9.04
21 9.04
22 9.04
23 9.04
00 10.04
01 10.04
02 10.04
03 10.04
04 10.04
05 10.04
06 10.04
07 10.04
08 10.04
09 10.04
10 10.04
11 10.04
12 10.04
13 10.04
14 10.04
15 10.04
16 10.04
17 10.04
18 10.04
19 10.04
20 10.04
21 10.04
22 10.04
23 10.04
00 11.04
01 11.04
02 11.04
03 11.04
04 11.04
05 11.04
06 11.04
07 11.04
08 11.04
09 11.04
10 11.04
11 11.04
12 11.04
13 11.04
14 11.04
15 11.04
16 11.04
17 11.04
18 11.04
19 11.04
20 11.04
21 11.04
22 11.04
23 11.04
00 12.04
01 12.04
02 12.04
03 12.04
04 12.04
05 12.04
06 12.04
07 12.04
08 12.04
09 12.04
11 12.04
12 12.04
13 12.04
14 12.04
15 12.04
16 12.04
17 12.04
18 12.04
19 12.04
20 12.04
21 12.04
22 12.04
23 12.04
00 13.04
01 13.04
02 13.04
03 13.04
04 13.04
05 13.04
06 13.04
07 13.04
08 13.04
09 13.04
Ветер
(напр.,м/с)
Видим. Явления Облачность Т
(С)
Тd
(С)
f
(%)
Тe
(С)
Тes
(С)
Комфортность P
(гПа)
Po
(гПа)
Тmin
(С)
Tmax
(С)
R
(мм)
R24
(мм)
S
(см)
С 2 6000 м дождь {морось} туман 10/10 120 м
[Frnb]
+17.8 +17.6 99 +18 +18 1013.9 957.6
С 3 8000 м слаб. дождь 10/10 90 м
[Frnb]
+17.6 +17.0 96 +18 +18 1013.8 957.2
Ю 2 3000 м дождь {морось} туман 10/10 60 м
[Frnb]
+17.5 +17.0 97 +18 +18 1014.6 957.8 +17.5 +20.6 16
Ю 2 4000 м слаб. дождь туман 10/10 120 м
[Frnb]
+17.3 +17.0 98 +18 +18 1014.6 957.8
С 4 3000 м дождь туман 10/10 90 м
[Frnb]
+17.2 +16.9 98 +17 +17 1013.8 957.2
С 4 6000 м слаб. дождь туман 10/10 120 м
[Frnb]
+17.7 +17.2 97 +18 +18 1014.1 957.4
С 3 5000 м слаб. дождь туман 10/9 150 м
[Frnb As op]
+18.0 +17.5 97 +18 +18 1013.7 957.0
Ю 3 3000 м дождь туман 10/10 120 м
[Frnb]
+18.1 +17.6 97 +19 +19 1013.0 956.5
Ю 2 6000 м ливневой дождь, в посл. час гроза туман 10/9 90 м
[Cb cap As op]
+18.3 +17.7 96 +20 +20 1013.0 956.5 20
Ю 5 8000 м слаб. дождь {гроза} туман 10/10 120 м
[Frnb]
+18.1 +17.5 96 +18 +18 1013.6 957.0
Ю 7 3000 м слаб. дождь туман 10/10 90 м
[Frnb]
+15.6 +15.3 98 +14 +14 1014.6 957.6
Ю 4 8000 м слаб. дождь туман 10/10 120 м
[Frnb]
+14.9 +13.7 93 +14 +14 1015.7 958.6
С 3 2000 м морось {дождь} туман 10/10 90 м
[Frnb]
+14.5 +13.8 96 +14 +14 1016.5 959.2
С 1 5000 м слаб. морось туман 10/10 120 м
[Frnb]
+14.3 +13.6 96 +15 +15 1017.4 960.0
С 3 8000 м слаб. дождь {морось} туман 10/10 150 м
[Frnb]
+14.4 +13.2 92 +13 +13 1016.9 959.4 +14.3 +18.3 6
С 2 10 км в посл. час дождь туман 9/6 210 м
[Frnb Ac As Cs]
+14.7 +13.3 91 +15 +15 1016.5 959.2
С 3 12 км дымка {дождь} 5/3 960 м
[Sc Ac As Cs]
+14.5 +13.1 91 +14 +14 1016.2 958.9
С 2 15 км {дождь} 3/3 900 м
[Sc]
+14.4 +13.2 92 +14 +14 1015.7 958.4
С 3 15 км ясно +13.3 +12.2 93 +12 +12 1015.5 958.2
Ю 1 15 км ясно +12.2 +11.7 97 +13 +13 1015.9 958.4
С 2 800 м туман, небо видно {дождь} ясно +11.4 +10.8 96 +10 +10 1015.7 958.2 0.0
С 1 300 м туман, небо видно 10/10 90 м
[St]
+12.6 +12.4 99 +12 +12 1015.1 957.7
Ю 1 700 м туман, небо видно 10/10 90 м
[St]
+12.4 +12.0 97 +13 +13 1015.4 957.7
штиль 0 1000 м в посл. час туман туман 10/10 60 м
[St]
+13.1 +12.9 99 +13 +13 1015.8 958.1
штиль 0 300 м туман, небо видно 10/10 60 м
[St]
+13.3 +13.1 99 +13 +13 1016.1 958.4
С 1 300 м туман, небо видно 10/10 60 м
[St]
+13.5 +13.3 99 +14 +14 1016.4 958.6
С 2 2000 м в посл. час туман туман 10/10 60 м
[St]
+14.0 +13.8 99 +14 +14 1017.4 959.7 +11.1 +14.7 26
С 2 8000 м дымка {туман} 10/10 120 м
[St]
+14.9 +14.7 99 +14 +14 1017.4 959.8
С 2 9000 м дымка 10/10 90 м
[St]
+15.7 +15.5 99 +16 +16 1017.8 960.2
С 2 9000 м дымка 10/10 120 м
[St]
+16.3 +15.6 96 +17 +17 1017.9 960.4
С 1 12 км 9/9 210 м
[St]
+18.3 +16.0 86 +20 +21 1017.2 959.8
СВ 2 15 км 3/3 450 м
[Cu hum]
+21.7 +17.6 78 +26 +36 душно 1015.9 958.8
С 4 15 км 3/3 600 м
[Cu hum]
+22.5 +17.5 73 +27 +33 душно 1015.0 957.8
С 4 15 км 3/3 600 м
[Sc]
+22.6 +17.9 75 +28 +31 душно 1014.5 957.6
ЮВ 4 15 км 1/1 600 м
[Sc]
+21.6 +16.7 74 +26 +28 душно 1014.7 957.7
С 4 15 км 1/1 600 м
[Sc]
+20.0 +16.1 78 +23 +23 комфорт 1014.8 957.7
С 3 15 км 1/1 540 м
[Sc]
+17.9 +15.8 88 +18 +18 1015.1 957.8
С 2 15 км 1/1 450 м
[Sc]
+15.8 +15.1 96 +16 +16 1015.6 958.1
С 3 5000 м дымка 10/10 60 м
[St]
+15.5 +15.0 97 +15 +15 1016.2 958.6 +14.0 +23.1
С 3 2000 м дымка 10/10 60 м
[St]
+15.3 +15.3 100 +14 +14 1016.2 958.8
С 1 1200 м в посл. час туман туман 10/10 60 м
[St]
+15.1 +15.1 100 +16 +16 1016.6 959.0
С 1 100 м туман, небо видно 10/10 30 м
[St]
+14.5 +14.5 100 +15 +15 1016.4 959.0
С 2 1500 м в посл. час туман туман 4/4 60 м
[St]
+13.5 +13.5 100 +13 +13 1015.8 958.5
С 2 8000 м дымка {туман} 1/1 90 м
[St]
+10.6 +10.4 99 +9 +9 1015.0 957.8
С 3 15 км {туман} ясно +11.5 +9.6 88 +10 +10 1013.9 956.9
С 3 15 км ясно +11.4 +9.3 87 +10 +10 1012.8 955.8
С 2 15 км ясно +10.5 +8.9 90 +9 +9 1012.4 955.3
С 2 15 км ясно +11.2 +8.9 86 +10 +10 1012.2 955.0
С 4 15 км ясно +12.2 +9.9 86 +10 +10 1012.3 955.0
С 4 15 км ясно +14.0 +11.8 87 +13 +13 1012.3 955.0
С 6 15 км ясно +17.0 +13.6 80 +16 +17 1012.1 955.0 +10.5 +17.0
С 9 30 км ясно +19.8 +14.1 70 +21 +21 комфорт 1012.2 955.4
С 8 15 км ясно +21.7 +14.1 62 +25 +26 комфорт 1011.6 955.0
С 4 30 км 1/0
[Ac und]
+23.1 +14.6 59 +27 +34 душно 1011.3 954.8
С 8 30 км 1/0
[Ac und]
+23.1 +15.7 63 +27 +30 душно 1011.1 954.5
С 6 15 км 1/0
[Ac und]
+24.8 +14.7 53 +27 +32 жарко 1009.9 953.3
С 7 15 км ясно +24.4 +15.0 56 +27 +30 жарко 1009.2 952.6
С 6 15 км ясно +23.2 +14.7 59 +27 +30 душно 1008.6 952.0
С 6 15 км ясно +24.0 +15.7 60 +27 +29 жарко 1008.4 951.8
С 6 15 км ясно +22.4 +16.0 67 +27 +27 душно 1008.4 951.7
С 4 15 км ясно +20.0 +15.9 77 +23 +23 комфорт 1008.9 952.0
С 4 15 км ясно +17.7 +15.4 86 +18 +18 1009.6 952.6
С 3 15 км ясно +16.5 +15.2 92 +16 +16 1010.2 953.4 +16.5 +25.4
С 2 15 км ясно +15.3 +14.5 95 +15 +15 1010.8 954.1
С 2 15 км ясно +14.0 +13.5 97 +14 +14 1011.0 954.2
С 2 15 км ясно +13.3 +12.2 93 +12 +12 1011.2 954.6
С 2 15 км ясно +13.0 +12.6 97 +12 +12 1011.8 955.0
З 3 15 км ясно +13.3 +12.6 96 +12 +12 1011.9 955.4
Ю 2 7000 м дымка 4/4 90 м
[St]
+13.9 +13.6 98 +13 +13 1012.2 955.7
нст 1 100 м туман на расстоянии 6/6 30 м
[St]
+15.0 +14.8 99 +15 +15 1012.2 955.7
С 1 100 м туман, небо видно 6/6 30 м
[St]
+14.6 +14.6 100 +15 +15 1012.0 955.4
штиль 0 1200 м в посл. час туман туман 1/1 30 м
[St]
+13.1 +13.1 100 +12 +12 1012.8 956.0
Ю 2 1500 м туман местами 1/1 30 м
[St]
+11.7 +11.3 97 +10 +10 1014.1 956.9
Ю 2 500 м туман, небо видно 6/6 30 м
[St]
+13.4 +12.5 94 +13 +13 1015.1 957.8
С 2 5000 м в посл. час туман туман ясно +16.1 +15.6 97 +16 +18 1017.3 960.0 +11.7 +16.9
Ю 2 15 км дымка {туман} 1/0
[As op]
+19.5 +16.9 85 +22 +27 комфорт 1016.1 959.0
Ю 3 15 км 3/1 750 м
[Cu hum As op]
+22.4 +14.1 59 +26 +31 жарко 1016.2 959.3
Ю 4 15 км 4/1 750 м
[Cu hum As op Ci]
+22.8 +14.8 61 +27 +32 душно 1016.0 959.0
Ю 3 15 км 6/0 2000 м
[Ac As Ci]
+24.5 +15.1 56 +27 +36 жарко 1015.6 958.8
Ю 4 15 км 6/0 2000 м
[Ac As Ci]
+24.9 +15.3 55 +28 +33 жарко 1014.3 957.7
Ю 5 15 км 6/1 1260 м
[Cu hum Ac As Ci]
+26.3 +16.4 54 +30 +33 душно 1013.4 957.0
Ю 3 30 км 8/3 1050 м
[Cu hum Ac As Ci]
+24.9 +16.9 61 +29 +31 душно 1013.4 957.0
Ю 6 15 км 9/6 840 м
[Cu Sc Ac As Ci]
+21.5 +16.9 75 +25 +26 комфорт 1014.0 957.2
Ю 4 15 км 10/6 600 м
[Cu Sc Ac As]
+20.3 +16.1 77 +23 +23 комфорт 1014.9 957.8
Ю 4 12 км 10/10 400 м
[St]
+18.4 +15.4 83 +19 +19 1015.8 958.2
Ю 3 12 км 10/10 360 м
[St]
+18.0 +15.4 85 +18 +18 1016.2 958.8
Ю 3 12 км 10/10 360 м
[St]
+18.2 +15.9 86 +19 +19 1016.5 959.4 +16.1 +26.5
Ю 4 12 км 10/10 400 м
[St]
+18.3 +16.2 88 +19 +19 1016.7 959.8
Ю 3 12 км 10/10 800 м
[Sc]
+18.4 +16.1 86 +19 +19 1016.7 960.2
Ю 3 12 км 10/10 960 м
[Sc]
+18.6 +16.0 85 +20 +20 1016.9 960.4
Ю 5 12 км 10/10 660 м
[Sc]
+18.4 +14.7 79 +19 +19 1016.9 960.6
Ю 4 12 км 10/10 1000 м
[Sc]
+17.5 +14.1 80 +17 +17 1016.9 960.5
Ю 3 12 км 10/10 1050 м
[Sc]
+16.8 +13.7 82 +17 +17 1016.7 960.4
Ю 3 12 км 10/10 840 м
[Sc]
+16.6 +13.9 84 +16 +16 1016.4 960.0
Ю 3 12 км 10/10 420 м
[Sc]
+16.2 +13.8 86 +16 +16 1016.2 959.7
Ю 3 12 км 10/10 400 м
[St]
+16.0 +13.8 87 +15 +15 1016.7 959.8
Ю 3 12 км 10/10 330 м
[St]
+16.1 +13.7 86 +16 +16 1017.6 960.4
Ю 4 9000 м дымка 10/10 270 м
[St]
+15.8 +13.7 87 +15 +15 1018.3 961.0
Ю 4 7000 м дымка 10/10 210 м
[St]
+15.6 +13.9 90 +15 +15 1019.1 961.8 +15.6 +18.6
Ю 5 5000 м слаб. морось туман 10/10 150 м
[St]
+15.0 +13.6 91 +14 +14 1020.3 962.9
Ю 5 9000 м в посл. час морось туман 10/10 210 м
[St]
+15.2 +13.5 90 +14 +14 1020.3 962.9
Ю 5 3000 м морось 10/10 240 м
[St]
+14.8 +13.4 91 +13 +13 1020.3 962.9
Ю 5 1500 м морось туман 10/10 120 м
[St]
+14.0 +13.7 98 +12 +12 1020.2 962.6
Ю 5 1500 м морось туман 10/10 120 м
[St]
+13.6 +12.9 96 +12 +12 1020.2 962.6
Ю 5 800 м морось 10/10 150 м
[St]
+12.8 +11.7 93 +11 +11 1020.3 962.5 2
Ю 6 1000 м морось туман 10/10 150 м
[St]
+11.9 +11.3 96 +9 +9 1020.7 962.8
Ю 6 1000 м морось туман 10/10 120 м
[St]
+11.0 +10.6 97 +8 +8 1021.6 963.4
Ю 5 1000 м морось 10/10 150 м
[St]
+10.6 +10.2 97 +7 +7 1022.6 964.4
Ю 5 1000 м морось туман 10/10 150 м
[St]
+9.8 +9.4 97 +6 +6 1023.2 964.9
Ю 6 3000 м морось туман 10/10 150 м
[St]
+9.5 +9.1 97 +6 +6 1024.5 966.1
Ю 4 1500 м морось туман 10/10 150 м
[St]
+9.1 +8.7 97 +6 +6 1025.0 966.5 +9.1 +15.6 4
Ю 4 6000 м слаб. морось туман 10/10 210 м
[St]
+9.0 +8.2 95 +6 +6 1025.5 966.9
Ю 5 3500 м морось туман 10/10 180 м
[St]
+9.0 +8.6 97 +6 +6 1025.9 967.3
Ю 3 6000 м слаб. морось 10/10 150 м
[St]
+8.8 +8.4 97 +6 +6 1025.8 967.0
Ю 3 2500 м слаб. морось туман 10/10 150 м
[St]
+8.7 +8.3 97 +6 +6 1025.8 967.0
Ю 3 4500 м слаб. морось туман 10/10 90 м
[St]
+8.8 +8.4 97 +6 +6 1025.7 966.9
Ю 2 4500 м слаб. морось туман 10/10 150 м
[St]
+8.8 +8.4 97 +7 +7 1025.2 966.4 0.5
Ю 2 6000 м слаб. морось туман 10/10 150 м
[St]
+8.8 +8.4 97 +7 +7 1024.8 965.8
Ю 2 10 км в посл. час морось 10/10 180 м
[Frnb]
+9.0 +8.2 95 +7 +7 1024.4 965.4
Ю 2 8000 м слаб. морось 10/10 180 м
[St]
+9.0 +8.6 97 +7 +7 1024.4 965.4
Ю 2 15 км в посл. час морось 10/10 240 м
[St]
+9.0 +8.2 95 +8 +8 1024.4 965.5
Ю 1 8000 м слаб. морось туман 10/10 300 м
[St]
+9.2 +6.7 84 +9 +9 1024.8 965.7
Ю 2 3500 м слаб. морось туман 10/10 300 м
[Frnb]
+9.5 +9.1 97 +8 +8 1025.6 966.4 +8.7 +9.6 0.5
Ю 2 2000 м слаб. дождь {морось} туман 10/10 180 м
[Frnb]
+9.9 +9.1 95 +9 +9 1025.9 966.6
Ю 3 3500 м в посл. час дождь туман 10/10 300 м
[Frnb]
+10.4 +9.4 94 +8 +8 1025.7 966.6
Ю 2 3500 м дымка {дождь, морось} 10/10 210 м
[Frnb]
+10.5 +9.3 92 +9 +9 1025.1 966.0
Ю 4 5000 м дымка 10/10 300 м
[Frnb]
+11.6 +9.1 85 +10 +10 1024.2 965.3
Ю 2 8000 м дымка 10/10 450 м
[St]
+11.3 +10.4 94 +10 +10 1023.6 964.6
Ю 2 9000 м дымка {дождь} 10/6 750 м
[St As op]
+11.8 +10.3 91 +11 +11 1022.8 964.0 0.6
С 3 9000 м дымка 10/8 600 м
[St As op]
+13.5 +10.3 81 +13 +13 1022.1 963.4
Ю 2 9000 м дымка 10/8 600 м
[St As op]
+13.7 +9.3 75 +13 +13 1022.2 963.6
Ю 3 9000 м дымка 10/5 600 м
[St As op]
+12.7 +10.1 84 +11 +11 1022.5 963.8
Ю 3 9000 м дымка 9/6 800 м
[Sc Ac As]
+12.8 +10.2 84 +11 +11 1022.7 964.0
Ю 3 10 км 9/9 700 м
[Sc]
+12.3 +10.2 87 +11 +11 1022.9 964.2
Ю 3 10 км 9/9 900 м
[Sc]
+12.3 +10.0 86 +11 +11 1023.5 964.8 +9.5 +14.0
нст 2 9000 м слаб. морось 10/10 600 м
[Sc]
+12.5 +10.8 89 +12 +12 1023.8 965.0
Ю 4 8000 м слаб. дождь {морось} туман 10/10 570 м
[St]
+12.6 +10.9 89 +11 +11 1023.9 965.3
Ю 3 5000 м морось {дождь} туман 10/10 420 м
[St]
+12.0 +11.5 97 +10 +10 1024.1 965.4
Ю 3 4000 м морось 10/10 180 м
[St]
+12.0 +11.6 97 +10 +10 1023.6 965.0
Ю 3 3000 м морось 10/10 90 м
[St]
+12.0 +11.6 97 +10 +10 1023.4 964.8
Ю 3 3000 м морось {дождь} 10/10 90 м
[St]
+11.8 +11.4 97 +10 +10 1023.0 964.5 0.8
Ю 2 4000 м морось 10/10 120 м
[St]
+11.8 +11.6 99 +10 +10 1022.2 963.8
Ю 3 4000 м морось 10/10 90 м
[St]
+11.8 +11.4 97 +10 +10 1021.3 963.0
Ю 2 4000 м морось 10/10 90 м
[St]
+11.9 +11.5 97 +11 +11 1021.2 962.9
Ю 3 2000 м морось 10/10 90 м
[St]
+11.8 +11.4 97 +10 +10 1021.2 962.8
Ю 3 3000 м слаб. морось 10/10 60 м
[St]
+12.0 +11.6 97 +10 +10 1021.4 963.0 +11.9 +12.6 2
Ю 2 1500 м слаб. морось 10/10 90 м
[St]
+12.0 +11.6 97 +11 +11 1021.2 962.9
Ю 2 2000 м гроза, ливневой дождь 10/10 60 м
[Cb cap]
+12.2 +11.8 97 +11 +11 1021.2 962.8
Ю 3 3000 м дождь {гроза} туман 10/5 120 м
[Cb cap As op]
+12.4 +12.0 97 +11 +12 1021.0 962.6
Ю 3 3000 м дождь туман 10/5 120 м
[Cb cap As op]
+13.0 +12.3 96 +11 +12 1020.1 961.8
Ю 3 3000 м в посл. час дождь {морось} туман 10/10 120 м
[Frnb]
+13.6 +12.9 96 +13 +13 1019.1 961.0
Ю 3 1000 м дождь {гроза} туман 10/10 90 м
[St]
+13.2 +12.8 97 +12 +12 1018.5 960.4 8
Ю 3 1000 м дождь туман 10/10 120 м
[St]
+13.4 +12.7 96 +12 +12 1018.0 959.8
Ю 3 1000 м дождь туман 10/10 120 м
[St]
+13.2 +12.8 97 +12 +12 1017.8 959.7
Ю 3 1600 м дождь туман 10/10 120 м
[St]
+13.2 +12.8 97 +12 +12 1017.8 959.7
Ю 2 1500 м слаб. морось {дождь} туман 10/10 90 м
[Frnb]
+12.8 +12.8 100 +12 +12 1017.9 959.8
Ю 2 1500 м слаб. морось туман 10/10 90 м
[Frnb]
+12.6 +12.6 100 +12 +12 1018.5 960.2
Ю 3 3000 м слаб. морось {дождь} туман 10/10 60 м
[Frnb]
+12.5 +12.5 100 +11 +11 1019.1 960.9 +12.0 +13.6 6
Ю 2 3000 м слаб. морось туман 10/10 60 м
[Frnb]
+12.5 +12.3 99 +11 +11 1019.5 961.3
Ю 3 3000 м слаб. морось 10/10 90 м
[Frnb]
+12.6 +12.2 97 +11 +11 1019.5 961.3
Ю 3 3000 м слаб. морось туман 10/10 90 м
[Frnb]
+12.3 +12.1 99 +11 +11 1019.3 961.0
Ю 3 3000 м слаб. морось туман 10/10 90 м
[Frnb]
+12.5 +12.3 99 +11 +11 1018.9 960.8
Ю 3 3000 м слаб. морось туман 10/10 90 м
[Frnb]
+12.4 +12.2 99 +11 +11 1018.6 960.6
Ю 4 3000 м слаб. морось туман 10/10 120 м
[Frnb]
+12.4 +12.2 99 +10 +10 1018.5 960.4 5
Ю 4 3000 м слаб. морось 10/10 120 м
[Frnb]
+12.3 +12.1 99 +10 +10 1017.8 959.8
Ю 4 3000 м слаб. морось туман 10/10 120 м
[Frnb]
+12.2 +12.0 99 +10 +10 1017.1 959.0
Ю 4 3000 м слаб. морось туман 10/10 120 м
[Frnb]
+12.5 +12.1 97 +11 +11 1017.0 959.0
Местоположение метеостанции Кордова (Аргентина): широта -31.31 долгота -64.21 высота над уровнем моря 474 м.
В архиве по умолчанию представлена погода в Кордове за последнюю неделю. Архивные данные за месяц целиком и за предыдущие месяцы, начиная с января 2011 года, Вы можете получить, выбрав интересующий диапазон дат из раскрывающегося списка и нажав кнопку "Найти!".
*Определитесь, кто Вы:
Внимание! Время в таблицах - всемирное. Для получения местного времени необходимо прибавить поправку, которая равна -3 ч.
Некоторые строки с данными для отдельных станций могут быть выделены курсивом. Это означает, что фактические данные отсутствуют по различным причинам, а приведенные значения являются расчетными модельными данными для данного пункта наблюдений.
Смотрите также архив погоды в соседних городах и на ближайших метеорологических станциях:
Партнеры нашего сайта:      
Пояснения к столбцам:
  • Ветер - указаны скорость ветра в м/с - средняя за 10 мин, порывы в срок и между сроками (в фигурных скобках) и направление, откуда дует ветер: С - северный,
  • СВ - северо-восточный, В - восточный, ЮВ - юго-восточный, Ю - южный, ЮЗ - юго-западный, З - западный, СЗ - северо-западный.
  • Видимость - горизонтальная дальность видимости в метрах или километрах. При видимости от 1 до 10 км при отсутствии осадков обычно наблюдается дымка, при ухудшении видимости до 1 км и менее - туман. В сухую погоду видимость может ухудшаться дымом, пылью или мглою.
  • Явления - указаны атмосферные явления, наблюдавшиеся в срок или в последний час перед сроком; фигурными скобками обозначены явления, наблюдавшиеся между сроками (за 1-3 часа до срока); квадратными скобками обозначены град или гололедные отложения с указанием их диаметра в мм.
  • Облачность - указаны через наклонную черту общая и нижняя облачность в баллах и высота нижней границы облаков в метрах; квадратными скобками обозначены формы облаков: Ci - перистые, Cs - перисто-слоистые, Cc - перисто-кучевые, Ac - высококучевые, As - высокослоистые, Sc - слоисто-кучевые, Ns - слоисто-дождевые, Cu - кучевые, Cb - кучево-дождевые. Подробнее классификацию облаков см. в Атласе облаков (PDF).
  • T - Температура воздуха - температура, измеренная на высоте 2 м над землей.
  • Td - Температура точки росы - температура, при понижении до которой содержащийся в воздухе водяной пар достигнет насыщения.
  • f - Относительная влажность воздуха - влажноcть воздуха, измеренная на высоте 2 м над землей.
  • Te - Эффективная температура - температура, которую ощущает одетый по сезону человек в тени. Характеристика душности погоды. При расчете учитывается влияние влажности воздуха и скорости ветра на теплоощущения человека.
  • Tes - Эффективная температура на солнце - температура, которую ощущает человек, с поправкой на солнечный нагрев. Характеристика знойности погоды. Зависит от высоты солнца над горизонтом, облачности и скорости ветра. Ночью, в пасмурную погоду, а также при ветре 12 м/с и более поправка равна нулю.
  • P - Атмосферное давление - приведенное к уровню моря атмосферное давление.
  • Po - Атмосферное давление - измеренное на уровне метеостанции атмосферное давление.
  • Tmin - Минимальная температура - минимум температуры воздуха на высоте 2 м над землей.
  • Tmax - Максимальная температура - максимум температуры воздуха на высоте 2 м над землей.
  • R - Количество осадков - Количество выпавших осадков за период времени, мм. При наведении курсора мыши на число - период времени, за который выпало указанное количество осадков.
  • R24 - Количество осадков - Количество выпавших осадков за 24 часа, мм.
  • S - Снежный покров - Высота снежного покрова, см. При наведении курсора мыши на число - состояние снежного покрова и степень покрытия местности в баллах.